Flag for Canada Weather past 2 weeks in Thompson, Manitoba, Canada

Now
73 °F

Passing clouds.


Feels Like: 75 °F
Forecast: 41 / 77 °F
Wind: 14 mph from West

Location: Thompson

Current Time: May 24, 2015 at 1:33:32 PM

Latest Report: May 24, 2015 at 1:00 PM


Visibility: 15 mi

Pressure: 29.93 "Hg

Humidity: 20%

Dew point: 30 °F

Location of ThompsonLocation

Historic Weather in Thompson — Graph

°F

Thompson temperature yesterday

Maximum temperature yesterday: 61 °F (at 6:00 PM)
Minimum temperature yesterday: 34 °F (at 7:00 AM)
Average temperature yesterday: 48 °F

Past Weeks' High & Low Weather Summary

 TemperatureHumidityPressure
High79 °F (May 22, 6:00 PM)93% (May 10, 5:00 AM)30.58 "Hg (May 10, 5:00 AM)
Low18 °F (May 17, 5:00 AM)15% (May 18, 6:00 PM)29.76 "Hg (May 16, 11:00 AM)
Average46 °F50%30.21 "Hg
* Reported May 9 12:00 Noon — May 24 12:00 Noon, Thompson, Weather by CustomWeather, © 2015

Note: Actual official high and low records may vary slightly from our data, if they occured in-between our weather recording intervals... More about our weather records

Advertising

Thompson weather history for previous 24 hours

 ConditionsComfort  
Time TempWeatherWind HumidityBarometerVisibility
12:00 PM
Sun, May 24
72 °FPassing clouds.10 mph19%29.96 "Hg15 mi
11:00 AM70 °FPassing clouds.13 mph20%29.97 "Hg15 mi
10:00 AM64 °FPassing clouds.10 mph22%29.99 "Hg15 mi
9:00 AM61 °FSunny.13 mph27%30.01 "Hg15 mi
8:00 AM54 °FPassing clouds.9 mph38%30.02 "Hg15 mi
7:00 AM45 °FPassing clouds.6 mph57%30.04 "Hg15 mi
6:00 AM39 °FPassing clouds.2 mph61%30.05 "Hg15 mi
5:00 AM39 °FPassing clouds.3 mph61%30.06 "Hg15 mi
4:00 AM41 °FClear.5 mph57%30.06 "Hg15 mi
3:00 AM41 °FPassing clouds.2 mph61%30.08 "Hg15 mi
2:00 AM43 °FClear.3 mph53%30.09 "Hg15 mi
1:00 AM41 °FPassing clouds.2 mph61%30.10 "Hg15 mi
12:00 AM39 °FPassing clouds.No wind70%30.11 "Hg15 mi
11:00 PM
Sat, May 23
41 °FPassing clouds.No wind66%30.12 "Hg15 mi
10:00 PM48 °FPassing clouds.No wind50%30.13 "Hg15 mi
9:00 PM57 °FScattered clouds.6 mph27%30.14 "Hg15 mi
8:00 PM61 °FScattered clouds.8 mph23%30.14 "Hg15 mi
7:00 PM61 °FScattered clouds.8 mph22%30.16 "Hg15 mi
6:00 PM61 °FScattered clouds.5 mph22%30.17 "Hg15 mi
5:00 PM59 °FScattered clouds.3 mph23%30.19 "Hg15 mi
4:00 PM59 °FScattered clouds.7 mph25%30.20 "Hg15 mi
3:00 PM57 °FPassing clouds.6 mph29%30.21 "Hg15 mi
2:00 PM54 °FPassing clouds.5 mph33%30.22 "Hg15 mi
1:00 PM52 °FPassing clouds.8 mph35%30.24 "Hg15 mi
Weather by CustomWeather, © 2015

See weather overviewHow to use our weather pages